Date String (YYYY-MM-DD hh:mm:ss) UTC,Instrument flags,Ambient pressure (hPa),Sample flow (lpm),Bypass flow (lpm),Sample temperature (°C),Ambient temperature (°C),ASC tube jacket temperature (°C),LED temperature (°C),Box temperature (°C),Sample RH (%),Span deviation,Mass concentration (μg/m³),Mass concentration (μg/m³),Mass concentration (μg/m³)
DateTimeUTC,F1_M11,P_M11,Q1_M11,Q2_M11,T1_M11,T2_M11,T3_M11,T4_M11,T5_M11,U1_M11,ZSPAN_M11,X0_M11,X2_M11,X1_M11
2022-02-19 06:00:00,,0830.7,5.01,0.00,22.2,21.7,00.0,31.1,24.0,09.3,0000.0,0003.71,0002.39,0002.00
2022-02-19 06:01:00,,0830.6,5.00,0.00,22.2,21.7,00.0,31.1,24.0,09.2,0000.0,0003.81,0002.53,0002.08
2022-02-19 06:02:00,,0830.6,5.00,0.00,22.2,21.7,00.0,31.1,24.0,09.2,0000.0,0004.86,0002.58,0002.11
2022-02-19 06:03:00,,0830.6,4.99,0.00,22.2,21.7,00.0,31.1,24.1,09.1,0000.0,0005.27,0002.59,0002.10
2022-02-19 06:04:00,,0830.6,5.00,0.00,22.2,21.7,00.0,31.1,24.1,09.1,0000.0,0005.32,0002.57,0002.09
2022-02-19 06:05:00,,0830.6,5.00,0.00,22.2,21.7,00.0,31.1,24.1,08.9,0000.0,0005.21,0002.48,0002.02
2022-02-19 06:06:00,,0830.6,5.01,0.00,22.2,21.7,00.0,31.2,24.1,08.8,0000.0,0004.95,0002.30,0001.88
2022-02-19 06:07:00,,0830.6,5.01,0.00,22.2,21.7,00.0,31.2,24.1,09.0,0000.0,0004.66,0002.19,0001.79
2022-02-19 06:08:00,,0830.6,5.00,0.00,22.2,21.7,00.0,31.2,24.0,09.2,0000.0,0004.84,0002.19,0001.76
2022-02-19 06:09:00,,0830.6,5.00,0.00,22.2,21.7,00.0,31.2,24.0,09.1,0000.0,0005.57,0002.16,0001.72
2022-02-19 06:10:00,,0830.6,4.99,0.00,22.2,21.7,00.0,31.2,24.0,09.1,0000.0,0005.51,0002.13,0001.68
2022-02-19 06:11:00,,0830.6,5.01,0.00,22.2,21.7,00.0,31.2,24.0,09.0,0000.0,0005.36,0002.04,0001.61
2022-02-19 06:12:00,,0830.6,5.00,0.00,22.2,21.6,00.0,31.2,24.0,08.9,0000.0,0005.26,0001.87,0001.46
2022-02-19 06:13:00,,0830.6,5.00,0.00,22.2,21.6,00.0,31.2,24.0,08.9,0000.0,0004.27,0001.68,0001.33
2022-02-19 06:14:00,,0830.6,4.99,0.00,22.2,21.6,00.0,31.2,24.0,09.0,0000.0,0003.53,0001.58,0001.25
2022-02-19 06:15:00,,0830.6,5.00,0.00,22.2,21.6,00.0,31.2,24.0,09.0,0000.0,0003.48,0001.51,0001.17
2022-02-19 06:16:00,,0830.6,4.99,0.00,22.2,21.6,00.0,31.2,23.9,09.1,0000.0,0003.44,0001.48,0001.15
2022-02-19 06:17:00,,0830.6,4.99,0.00,22.2,21.6,00.0,31.2,23.9,09.3,0000.0,0003.46,0001.51,0001.18
2022-02-19 06:18:00,,0830.6,5.00,0.00,22.2,21.6,00.0,31.2,24.0,09.2,0000.0,0003.44,0001.48,0001.15
2022-02-19 06:19:00,,0830.6,5.01,0.00,22.2,21.5,00.0,31.2,23.9,09.1,0000.0,0003.03,0001.36,0001.06
2022-02-19 06:20:00,,0830.6,5.00,0.00,22.2,21.5,00.0,31.2,23.9,09.2,0000.0,0002.15,0001.24,0000.97
2022-02-19 06:21:00,,0830.5,4.99,0.00,22.2,21.5,00.0,31.2,23.9,09.2,0000.0,0002.00,0001.13,0000.88
2022-02-19 06:22:00,,0830.6,5.00,0.00,22.2,21.5,00.0,31.2,23.9,09.1,0000.0,0001.74,0001.02,0000.83
2022-02-19 06:23:00,,0830.6,5.01,0.00,22.2,21.5,00.0,31.2,23.9,09.1,0000.0,0001.45,0000.98,0000.84
2022-02-19 06:24:00,,0830.5,5.00,0.00,22.2,21.5,00.0,31.2,23.9,09.1,0000.0,0001.84,0001.01,0000.84
2022-02-19 06:25:00,,0830.6,4.99,0.00,22.2,21.5,00.0,31.2,23.9,09.2,0000.0,0001.92,0001.02,0000.84
2022-02-19 06:26:00,,0830.6,5.00,0.00,22.2,21.5,00.0,31.2,23.9,09.2,0000.0,0001.86,0001.01,0000.83
2022-02-19 06:27:00,,0830.6,5.00,0.00,22.2,21.5,00.0,31.2,23.9,09.3,0000.0,0001.87,0000.98,0000.81
2022-02-19 06:28:00,,0830.6,5.00,0.00,22.2,21.5,00.0,31.2,23.9,09.3,0000.0,0001.89,0000.97,0000.78
2022-02-19 06:29:00,,0830.6,4.99,0.00,22.2,21.5,00.0,31.2,23.9,09.3,0000.0,0001.78,0000.90,0000.73
2022-02-19 06:30:00,,0830.6,5.00,0.00,22.2,21.5,00.0,31.2,23.8,09.4,0000.0,0001.69,0000.85,0000.69
2022-02-19 06:31:00,,0830.6,5.00,0.00,22.1,21.5,00.0,31.2,23.9,09.3,0000.0,0001.81,0000.82,0000.66
2022-02-19 06:32:00,,0830.6,5.01,0.00,22.2,21.7,00.0,31.2,24.0,09.3,0000.0,0001.77,0000.77,0000.62
2022-02-19 06:33:00,,0830.6,4.98,0.00,22.3,22.4,00.0,31.2,24.2,09.2,0000.0,0001.90,0000.79,0000.59
2022-02-19 06:34:00,,0830.6,5.00,0.00,22.4,22.8,00.0,31.3,24.4,09.1,0000.0,0001.92,0000.78,0000.57
2022-02-19 06:35:00,,0830.6,5.00,0.00,22.5,22.7,00.0,31.3,24.4,09.0,0000.0,0001.51,0000.74,0000.54
2022-02-19 06:36:00,,0830.6,5.01,0.00,22.5,22.6,00.0,31.3,24.4,09.0,0000.0,0001.44,0000.72,0000.52
2022-02-19 06:37:00,,0830.6,5.00,0.00,22.5,22.4,00.0,31.3,24.4,09.1,0000.0,0001.41,0000.73,0000.50
2022-02-19 06:38:00,,0830.5,5.01,0.00,22.5,22.3,00.0,31.3,24.4,09.0,0000.0,0001.39,0000.74,0000.49
2022-02-19 06:39:00,,0830.6,5.00,0.00,22.5,22.2,00.0,31.3,24.3,09.0,0000.0,0001.40,0000.75,0000.50
2022-02-19 06:40:00,,0830.6,4.99,0.00,22.5,22.1,00.0,31.4,24.3,08.9,0000.0,0001.45,0000.77,0000.51
2022-02-19 06:41:00,,0830.5,4.99,0.00,22.5,22.0,00.0,31.4,24.3,08.9,0000.0,0001.47,0000.77,0000.51
2022-02-19 06:42:00,,0830.5,5.01,0.00,22.4,22.0,00.0,31.4,24.2,08.9,0000.0,0001.34,0000.77,0000.52
2022-02-19 06:43:00,,0830.5,5.00,0.00,22.4,21.9,00.0,31.4,24.2,08.9,0000.0,0001.34,0000.78,0000.53
2022-02-19 06:44:00,,0830.6,4.99,0.00,22.4,21.8,00.0,31.4,24.2,08.9,0000.0,0001.18,0000.74,0000.53
2022-02-19 06:45:00,,0830.5,5.01,0.00,22.4,21.8,00.0,31.4,24.2,08.8,0000.0,0001.17,0000.74,0000.53
2022-02-19 06:46:00,,0830.5,5.00,0.00,22.4,21.8,00.0,31.4,24.1,08.9,0000.0,0001.13,0000.73,0000.53
2022-02-19 06:47:00,,0830.5,5.00,0.00,22.4,21.7,00.0,31.4,24.1,09.0,0000.0,0001.28,0000.72,0000.53
2022-02-19 06:48:00,,0830.4,4.99,0.00,22.4,21.7,00.0,31.4,24.1,09.0,0000.0,0001.31,0000.68,0000.52
2022-02-19 06:49:00,,0830.5,5.00,0.00,22.3,21.6,00.0,31.4,24.1,08.9,0000.0,0001.25,0000.65,0000.51
2022-02-19 06:50:00,,0830.4,5.00,0.00,22.3,21.6,00.0,31.4,24.1,08.9,0000.0,0001.15,0000.61,0000.49
2022-02-19 06:51:00,,0830.4,5.00,0.00,22.3,21.6,00.0,31.4,24.1,09.0,0000.0,0001.10,0000.58,0000.48
2022-02-19 06:52:00,,0830.5,5.00,0.00,22.3,21.6,00.0,31.4,24.0,09.0,0000.0,0001.04,0000.56,0000.47
2022-02-19 06:53:00,,0830.5,4.99,0.00,22.3,21.6,00.0,31.4,24.0,09.1,0000.0,0000.97,0000.53,0000.45
2022-02-19 06:54:00,,0830.4,4.99,0.00,22.3,21.6,00.0,31.3,24.0,09.1,0000.0,0000.97,0000.53,0000.44
2022-02-19 06:55:00,,0830.5,5.00,0.00,22.3,21.5,00.0,31.3,24.0,09.1,0000.0,0001.50,0000.51,0000.42
2022-02-19 06:56:00,,0830.5,5.01,0.00,22.2,21.5,00.0,31.3,24.0,09.1,0000.0,0001.64,0000.49,0000.40
2022-02-19 06:57:00,,0830.5,4.99,0.00,22.2,21.5,00.0,31.3,24.0,09.1,0000.0,0001.66,0000.49,0000.40
2022-02-19 06:58:00,,0830.6,5.02,0.00,22.2,21.5,00.0,31.3,24.0,09.1,0000.0,0001.47,0000.47,0000.39
2022-02-19 06:59:00,,0830.5,4.98,0.00,22.2,21.5,00.0,31.3,24.0,09.0,0000.0,0001.40,0000.47,0000.39
